Weather History for Altus AFB, OK

Change the Weather History Date:

Monday, April 28, 2014

  Actual Average Record
Temperature  
Mean Temperature 67 °F -  
Max Temperature 78 °F 75 °F 89 °F (2013)
Min Temperature 56 °F 51 °F 36 °F (2008)
Cooling Degree Days 2    
Growing Degree Days 17 (Base 50)    
Moisture  
Dew Point 36 °F    
Average Humidity 36    
Maximum Humidity 52    
Minimum Humidity 16    
Precipitation  
Precipitation 0.00 in - - ()
Sea Level Pressure  
Sea Level Pressure 29.60 in    
Wind  
Wind Speed 13 mph (NW)    
Max Wind Speed 25 mph    
Max Gust Speed 32 mph    
Visibility 9 miles    
Events      
Averages and records for this station are not official NWS values.
T = Trace of Precipitation, MM = Missing Value Source: NWS Daily Summary

Daily Weather History Graph

Daily Weather History Graph

Search for Another Location

Airport:

Trip Planner

Search our weather history database for the weather conditions in past years. The results will help you decide how hot, cold, wet, or windy it might be!

Date:

Astronomy

Apr. 28, 2014 Rise Set
Actual Time 6:49 AM CDT 8:19 PM CDT
Civil Twilight 6:23 AM CDT 8:46 PM CDT
Nautical Twilight 5:51 AM CDT 9:18 PM CDT
Astronomical Twilight 5:17 AM CDT 9:52 PM CDT
Moon 6:26 AM CDT (4/28) 8:00 PM CDT (4/28)
Length of Visible Light 14h 23m
Length of Day
13h 29m
Waning Crescent, 0% of the Moon is Illuminated
Apr 28
Waning Crescent
Apr 29
New
May 6
First Quarter
May 14
Full
May 21
Last Quarter

Hourly Weather History & Observations

Time (CDT) Temp. Dew Point Humidity Pressure Visibility Wind Dir Wind Speed Gust Speed Precip Events Conditions
12:08 AM 64.4 °F 37.4 °F 37% 29.51 in 5.0 mi NW 12.7 mph - N/A   Haze
12:13 AM 64.4 °F 37.4 °F 37% 29.52 in 5.0 mi NW 13.8 mph - N/A   Haze
12:20 AM 62.6 °F 37.4 °F 39% 29.52 in 5.0 mi NW 17.3 mph - N/A   Haze
12:35 AM 62.6 °F 37.4 °F 39% 29.54 in 7.0 mi NW 18.4 mph - N/A   Mostly Cloudy
12:40 AM 62.6 °F 37.4 °F 39% 29.54 in 7.0 mi WNW 13.8 mph - N/A   Mostly Cloudy
12:45 AM 62.6 °F 37.4 °F 39% 29.54 in 7.0 mi WNW 17.3 mph - N/A   Scattered Clouds
12:58 AM 61.5 °F 37.6 °F 41% 29.51 in 9.0 mi NW 16.1 mph 28.8 mph N/A   Partly Cloudy
1:23 AM 60.8 °F 37.4 °F 42% 29.55 in 9.0 mi WNW 12.7 mph - N/A   Clear
1:58 AM 58.6 °F 37.9 °F 46% 29.52 in 9.0 mi WNW 9.2 mph - N/A   Clear
2:58 AM 57.2 °F 37.4 °F 48% 29.54 in 10.0 mi West 10.4 mph - N/A   Clear
3:58 AM 56.3 °F 37.0 °F 48% 29.56 in 10.0 mi WNW 12.7 mph - N/A   Mostly Cloudy
4:28 AM 59.0 °F 35.6 °F 42% 29.60 in 10.0 mi West 11.5 mph - N/A   Light Drizzle
4:37 AM 59.0 °F 35.6 °F 42% 29.60 in 10.0 mi West 12.7 mph - N/A   Overcast
4:58 AM 58.3 °F 36.1 °F 44% 29.58 in 10.0 mi WNW 13.8 mph - 0.00 in   Mostly Cloudy
5:58 AM 58.6 °F 36.0 °F 43% 29.60 in 10.0 mi NW 12.7 mph - N/A   Mostly Cloudy
6:58 AM 56.3 °F 36.7 °F 48% 29.63 in 10.0 mi West 4.6 mph - N/A   Mostly Cloudy
7:58 AM 56.8 °F 38.1 °F 50% 29.66 in 10.0 mi West 5.8 mph - N/A   Scattered Clouds
8:58 AM 59.7 °F 39.0 °F 46% 29.67 in 10.0 mi West 12.7 mph - N/A   Partly Cloudy
9:58 AM 63.7 °F 35.2 °F 35% 29.66 in 10.0 mi NW 13.8 mph - N/A   Clear
10:58 AM 65.8 °F 34.2 °F 31% 29.67 in 10.0 mi NW 9.2 mph - N/A   Clear
11:59 AM 68.5 °F 34.5 °F 29% 29.68 in 10.0 mi Variable 6.9 mph - N/A   Clear
12:58 PM 71.1 °F 35.4 °F 27% 29.66 in 10.0 mi Variable 3.5 mph - N/A   Partly Cloudy
1:47 PM 71.6 °F 37.4 °F 29% 29.67 in 10.0 mi WSW 12.7 mph 20.7 mph N/A   Partly Cloudy
1:58 PM 73.4 °F 36.5 °F 26% 29.64 in 10.0 mi West 12.7 mph - N/A   Partly Cloudy
2:58 PM 73.9 °F 34.5 °F 24% 29.61 in 10.0 mi WSW 11.5 mph - N/A   Clear
3:58 PM 76.5 °F 34.0 °F 21% 29.58 in 10.0 mi SW 12.7 mph - N/A   Clear
4:58 PM 78.1 °F 32.0 °F 19% 29.55 in 10.0 mi WSW 13.8 mph 20.7 mph N/A   Clear
5:21 PM 78.8 °F 28.4 °F 16% 29.58 in 10.0 mi WNW 12.7 mph 21.9 mph N/A   Clear
5:40 PM 78.8 °F 28.4 °F 16% 29.59 in 10.0 mi NNW 13.8 mph 19.6 mph N/A   Clear
5:42 PM 78.8 °F 30.2 °F 17% 29.59 in 10.0 mi NNE 13.8 mph 19.6 mph N/A   Clear
5:58 PM 72.0 °F 38.7 °F 30% 29.56 in 10.0 mi NNE 21.9 mph - N/A   Clear
6:58 PM 70.0 °F 37.8 °F 31% 29.59 in 10.0 mi NNE 25.3 mph 32.2 mph N/A   Clear
7:58 PM 63.9 °F 39.0 °F 40% 29.61 in 10.0 mi NNE 15.0 mph - N/A   Clear
8:58 PM 63.9 °F 36.7 °F 37% 29.63 in 10.0 mi NE 8.1 mph - N/A   Mostly Cloudy
9:58 PM 60.8 °F 38.1 °F 43% 29.67 in 10.0 mi ESE 5.8 mph - N/A   Clear
10:58 PM 58.1 °F 40.6 °F 52% 29.70 in 10.0 mi North 6.9 mph - N/A   Clear
11:58 PM 60.1 °F 36.0 °F 41% 29.71 in 10.0 mi NW 8.1 mph - N/A   Partly Cloudy